Regional Weather Roundup
Issued by NWS

Home | Current Version | Previous Version | Graphics & Text | Print | Product List | Glossary On
Versions: 1 2 3 4 5 6 7 8 9 10 11 12 13 14 15 16 17 18 19 20 21 22 23 24 25 26 27 28 29 30 31 32 33 34 35 36 37 38 39 40 41 42 43 44 45 46 47 48 49 50
593
ASUS44 KLIX 300910
RWRLA
LOUISIANA WEATHER ROUNDUP
NATIONAL WEATHER SERVICE NEW ORLEANS LA
400 AM CDT THU OCT 30 2014

NOTE: "FAIR" INDICATES FEW OR NO CLOUDS BELOW 12,000 FEET WITH NO
      SIGNIFICANT WEATHER AND/OR OBSTRUCTIONS TO VISIBILITY.
      SKY/WX - SKY CONDITION AND SIGNIFICANT WEATHER.
      TMP - AIR TEMPERATURE.    DP   - DEWPOINT TEMPERATURE.
      RH  - RELATIVE HUMIDITY.  PRES - PRESSURE.
      HX  - HEAT INDEX.         WCI  - WIND CHILL INDEX.

*  THESE STATIONS ARE NOT NWS OR FAA STATIONS AND ARE NOT UNDER
   NWS QUALITY CONTROL.

LAZ040-048-061>063-065-066-069-301000-
SOUTHEAST LOUISIANA

CITY           SKY/WX    TMP DP  RH WIND       PRES   REMARKS
N.O. AUDUBON   NOT AVBL
N.O. INTL ARPT PTCLDY    66  47  50 NE16      30.06S
N.O. LAKEFRONT CLEAR     67  50  54 NE20      30.07R
N.O. DOWNTOWN* FAIR      66  45  45 NE7       30.07S
SLIDELL        PTCLDY    60  48  64 N7        30.06F
BATON ROUGE    CLEAR     53  48  83 CALM      30.09S
BOOTHVILLE     NOT AVBL
BELLE CHASSE   CLOUDY    66  49  54 NE9       30.05S
BOGALUSA*        N/A     53  47  80 NE3       30.10S
NEW ROADS*     FAIR      54  46  76 N5        30.10S
GONZALES*      PTSUNNY   60  53  76 CALM      30.08R
HAMMOND*       NOT AVBL
HOUMA*         CLOUDY    63  55  77 N7        30.05S
PORT FOURCHON* CLOUDY    72  64  78 NE16      30.06S

$$

LAZ041-044-053-054-301000-
SOUTHWEST LOUISIANA

CITY           SKY/WX    TMP DP  RH WIND       PRES   REMARKS
LAKE CHARLES   CLEAR     56  48  74 NE7       30.09S
LAFAYETTE      CLEAR     55  51  86 NE5       30.09S
PATTERSON      CLEAR     61  54  77 NE6       30.09S
SALT POINT       N/A     62  57  83 VRB5      30.05S
NEW IBERIA     CLEAR     60  51  72 NE12      30.08F
CHENAULT AIRPK CLEAR     56  48  76 NE5       30.10R

$$

LAZ027-028-301000-
CENTRAL LOUISIANA

CITY           SKY/WX    TMP DP  RH WIND       PRES   REMARKS
FORT POLK      CLEAR     54  46  73 NE5       30.11S
ALEXANDRIA INT CLEAR     44  44 100 CALM      30.11S
ALEXANDRIA     PTCLDY    44  42  93 CALM      30.12S

$$

LAZ001-002-301000-
NORTHWEST LOUISIANA

CITY           SKY/WX    TMP DP  RH WIND       PRES   REMARKS
SHREVEPORT     CLEAR     48  45  89 W3        30.13S
BARKSDALE AFB  CLEAR     46  45  97 CALM      30.14S
DTN SHREVEPORT CLEAR     47  45  93 CALM      30.14S FOG

$$

LAZ014-016-301000-
NORTHEAST LOUISIANA

CITY           SKY/WX    TMP DP  RH WIND       PRES   REMARKS
MONROE         CLEAR     48  46  93 CALM      30.15S
TALLULAH       CLEAR     41  40  96 W3        30.14R

$$




USA.gov is the U.S. government's official web portal to all federal, state and local government web resources and services.